Terminal Aerodrome Forecast
Issued by NWS Charleston, WV

Home | Current Version | Previous Version | Text Only | Print | Product List | Glossary On
Versions: 1 2 3 4 5 6 7 8 9 10 11 12 13 14 15 16 17 18 19 20 21 22 23 24 25 26
000
FTUS41 KRLX 190911 AAA
TAFPKB
TAF AMD
KPKB 190911Z 1909/2006 28012G22KT P6SM -SHRA OVC020
     FM191300 28013G22KT P6SM OVC025
     FM192100 28012G20KT P6SM BKN035
     FM200200 27010KT P6SM BKN040
     FM200500 26009KT P6SM SCT050=

USA.gov is the U.S. government's official web portal to all federal, state and local government web resources and services.